|
Cosmos 1302 Rocket - Orbit
|
Plymouth;
04:42:42
| Home | Info | Passes |
|
View from above orbital plane
|
View from above satellite
|
Ground track
|
The orbit data is extracted from the following two-line orbital elements,
1 12792U 81084B 13168.18315875 .00000142 00000-0 56910-4 0 2534
2 12792 074.0282 203.9451 0012456 126.0997 294.1048 14.36901164665169
| Epoch (UTC): | 17 June 2013 04:23:44 |
| Eccentricity: | 0.0012456 |
| inclination: | 74.0282° |
| perigee height: | 760 km |
| apogee height: | 777 km |
| right ascension of ascending node: | 203.9451° |
| argument of perigee: | 126.0997° |
| revolutions per day: | 14.36901164 |
| mean anomaly at epoch: | 294.1048° |
| orbit number at epoch: | 66516 |
The dashed part of the orbit path shows where the satellite is in the earth's shadow,
|
|